Temp
-3 -3 -4 -4 -4 -4 -4 -5 -5 -6 -7 -7 -8 -9 -9 -10 -10 -10 -11 -11 -11 -11 -11 -11 -11 -11 -11 -11 -11 -11 -11 -11 -11 -11 -11 -11 -11 -11 -11 -11 -11 -11 -11 -11 -11 -11 -11 -11 -11 -11 -11 -11 -11 -11 -11 -11 -11 -11 -11 -11 -11 -11 -11 -11 -11 -11 -11 -11 -12
-3 -4 -4 -4 -4 -4 -5 -5 -6 -6 -7 -8 -8 -9 -9 -10 -10 -10 -11 -11 -11 -11 -11 -11 -11 -11 -11 -11 -11 -11 -11 -11 -11 -11 -11 -11 -11 -11 -11 -11 -11 -11 -11 -11 -11 -11 -11 -11 -11 -11 -11 -11 -11 -10 -11 -11 -10 -10 -10 -11 -11 -11 -11 -11 -11 -11 -11 -11 -11
-3 -4 -4 -4 -4 -5 -5 -6 -6 -6 -7 -8 -8 -9 -9 -10 -10 -10 -11 -10 -11 -11 -11 -11 -11 -11 -11 -11 -11 -11 -11 -11 -11 -11 -11 -11 -11 -11 -11 -11 -11 -11 -11 -11 -11 -11 -11 -11 -11 -11 -11 -11 -11 -11 -10 -10 -10 -10 -10 -10 -10 -10 -11 -11 -11 -11 -11 -11 -11
-3 -4 -4 -4 -4 -5 -5 -6 -6 -6 -7 -8 -8 -8 -9 -9 -10 -10 -10 -11 -11 -11 -11 -11 -11 -11 -11 -11 -11 -11 -11 -11 -11 -11 -11 -11 -11 -11 -11 -11 -11 -11 -11 -11 -11 -11 -11 -11 -11 -11 -11 -11 -11 -11 -11 -11 -11 -11 -10 -10 -10 -10 -10 -10 -10 -10 -10 -10 -10
-4 -4 -4 -4 -4 -5 -5 -5 -6 -6 -7 -7 -8 -8 -9 -9 -10 -10 -10 -11 -11 -11 -11 -11 -11 -11 -11 -11 -11 -11 -11 -11 -11 -11 -11 -11 -11 -11 -11 -11 -11 -11 -11 -11 -10 -10 -11 -11 -11 -11 -11 -11 -11 -11 -11 -11 -11 -11 -11 -11 -11 -11 -11 -10 -10 -10 -10 -10 -10
-4 -4 -4 -4 -4 -5 -5 -6 -6 -6 -7 -7 -8 -8 -9 -9 -10 -10 -10 -10 -10 -11 -11 -11 -11 -11 -11 -11 -11 -11 -11 -11 -11 -11 -11 -11 -11 -11 -11 -11 -11 -11 -11 -10 -10 -10 -11 -11 -11 -11 -11 -11 -11 -11 -11 -11 -11 -11 -11 -11 -11 -11 -11 -11 -11 -11 -11 -11 -10
-4 -4 -4 -4 -5 -5 -5 -6 -6 -7 -7 -7 -8 -8 -9 -9 -10 -10 -10 -10 -10 -11 -11 -11 -11 -11 -11 -11 -11 -11 -11 -11 -11 -11 -11 -11 -11 -11 -10 -10 -10 -10 -10 -10 -10 -10 -10 -11 -11 -11 -11 -11 -11 -11 -11 -11 -10 -10 -10 -10 -11 -11 -11 -11 -11 -11 -11 -11 -10
-4 -4 -4 -4 -5 -5 -5 -6 -6 -7 -7 -7 -8 -8 -9 -9 -9 -10 -10 -10 -10 -11 -11 -11 -11 -11 -11 -11 -11 -11 -11 -11 -11 -11 -11 -11 -11 -10 -10 -10 -10 -10 -10 -10 -10 -10 -10 -10 -10 -10 -10 -11 -11 -11 -11 -11 -10 -10 -10 -10 -10 -11 -11 -10 -10 -10 -10 -10 -10
-4 -4 -4 -4 -5 -5 -5 -6 -6 -7 -7 -7 -8 -8 -8 -9 -9 -10 -10 -10 -10 -10 -10 -11 -11 -11 -11 -11 -11 -11 -11 -11 -11 -11 -11 -11 -11 -11 -10 -10 -10 -10 -10 -10 -10 -10 -10 -10 -10 -10 -10 -10 -11 -11 -11 -11 -10 -10 -10 -10 -11 -11 -10 -10 -10 -10 -10 -10 -10
-4 -4 -4 -5 -5 -5 -6 -6 -6 -7 -7 -7 -8 -8 -8 -9 -9 -9 -10 -10 -10 -10 -10 -11 -11 -11 -11 -11 -11 -11 -11 -11 -11 -11 -11 -11 -11 -11 -11 -10 -10 -10 -10 -10 -10 -10 -10 -10 -10 -10 -10 -10 -10 -10 -10 -10 -10 -10 -10 -11 -11 -11 -11 -11 -11 -11 -10 -10 -10
-4 -4 -4 -5 -5 -5 -6 -6 -6 -7 -7 -7 -7 -8 -8 -9 -9 -9 -9 -10 -10 -10 -10 -11 -11 -11 -11 -11 -11 -11 -11 -11 -11 -11 -11 -11 -11 -11 -11 -11 -10 -10 -10 -10 -10 -10 -10 -10 -10 -10 -10 -10 -10 -10 -10 -10 -10 -10 -10 -10 -10 -10 -11 -11 -11 -11 -11 -10 -10
-4 -4 -5 -5 -5 -5 -6 -6 -6 -7 -7 -7 -7 -8 -8 -9 -9 -9 -9 -9 -10 -10 -10 -10 -11 -11 -11 -11 -11 -11 -11 -11 -11 -11 -12 -12 -11 -11 -11 -11 -11 -11 -10 -10 -10 -10 -10 -10 -10 -10 -10 -10 -10 -10 -10 -10 -10 -10 -10 -10 -10 -10 -10 -10 -10 -10 -10 -11 -11
-4 -4 -5 -5 -5 -6 -6 -6 -6 -7 -7 -7 -8 -8 -8 -8 -9 -9 -9 -9 -9 -10 -10 -10 -10 -11 -11 -11 -11 -11 -11 -11 -12 -12 -12 -12 -12 -11 -11 -11 -11 -11 -11 -10 -10 -10 -10 -10 -10 -10 -10 -10 -10 -10 -10 -10 -10 -10 -10 -10 -10 -10 -10 -10 -10 -10 -10 -10 -10
-4 -5 -5 -5 -5 -6 -6 -6 -7 -7 -7 -7 -8 -8 -8 -8 -8 -9 -9 -9 -9 -9 -10 -10 -10 -11 -11 -11 -11 -11 -12 -12 -12 -12 -12 -12 -11 -11 -11 -11 -11 -11 -11 -10 -10 -10 -10 -10 -10 -10 -10 -10 -10 -10 -10 -10 -10 -10 -10 -10 -10 -10 -10 -10 -10 -10 -10 -10 -10
-4 -5 -5 -5 -5 -6 -6 -6 -7 -7 -7 -7 -8 -8 -8 -8 -8 -8 -9 -9 -9 -9 -10 -10 -10 -11 -11 -11 -11 -11 -12 -12 -12 -12 -12 -11 -11 -11 -11 -11 -10 -10 -11 -10 -10 -10 -10 -10 -11 -11 -11 -11 -10 -10 -10 -10 -10 -10 -10 -10 -10 -10 -10 -10 -10 -10 -10 -11 -11
-5 -5 -5 -5 -6 -6 -6 -6 -7 -7 -7 -7 -7 -8 -8 -8 -8 -8 -9 -9 -9 -9 -10 -10 -10 -11 -11 -11 -11 -11 -12 -12 -11 -11 -11 -11 -11 -11 -11 -11 -10 -10 -10 -10 -10 -10 -10 -10 -11 -11 -11 -11 -11 -10 -10 -10 -10 -10 -10 -10 -10 -10 -11 -11 -11 -11 -11 -11 -11
-5 -5 -5 -5 -6 -6 -6 -6 -7 -7 -7 -7 -7 -8 -8 -8 -8 -8 -8 -9 -9 -9 -9 -10 -10 -10 -11 -11 -11 -11 -12 -11 -11 -11 -11 -12 -12 -11 -11 -11 -11 -10 -10 -10 -10 -10 -10 -10 -10 -11 -11 -11 -11 -11 -10 -10 -10 -10 -10 -10 -10 -11 -11 -11 -11 -11 -11 -11 -11
-5 -5 -5 -5 -6 -6 -6 -6 -7 -7 -7 -7 -7 -8 -8 -8 -8 -8 -8 -9 -9 -9 -9 -9 -10 -10 -10 -11 -11 -11 -11 -11 -11 -11 -11 -12 -12 -12 -11 -11 -11 -11 -10 -10 -10 -10 -10 -10 -10 -10 -10 -11 -11 -11 -11 -10 -10 -10 -10 -10 -10 -11 -11 -11 -11 -11 -11 -11 -11
-5 -5 -5 -5 -6 -6 -6 -6 -7 -7 -7 -7 -7 -8 -8 -8 -8 -8 -8 -8 -9 -9 -9 -9 -9 -10 -10 -10 -11 -11 -11 -11 -11 -11 -11 -12 -12 -11 -11 -11 -11 -11 -11 -10 -10 -10 -10 -10 -10 -10 -10 -11 -11 -11 -11 -11 -11 -11 -10 -10 -11 -11 -11 -11 -11 -11 -11 -12 -12
-5 -5 -5 -5 -6 -6 -6 -6 -7 -7 -7 -7 -7 -8 -8 -8 -8 -8 -8 -8 -9 -9 -9 -9 -9 -10 -10 -10 -10 -10 -11 -11 -11 -11 -11 -11 -11 -11 -11 -11 -11 -11 -11 -11 -10 -10 -10 -10 -10 -10 -10 -10 -10 -11 -11 -11 -11 -11 -11 -11 -11 -11 -11 -11 -11 -11 -11 -11 -12
-5 -5 -5 -5 -6 -6 -6 -6 -7 -7 -7 -7 -7 -8 -8 -8 -8 -8 -8 -8 -9 -9 -9 -9 -9 -9 -10 -10 -10 -10 -10 -10 -11 -11 -11 -11 -11 -11 -11 -11 -11 -11 -11 -11 -10 -10 -10 -10 -10 -10 -11 -10 -10 -11 -11 -11 -11 -11 -11 -11 -11 -11 -12 -12 -12 -12 -11 -12 -12
-5 -5 -5 -5 -6 -6 -6 -6 -7 -7 -7 -7 -7 -8 -8 -8 -8 -8 -8 -8 -8 -9 -9 -9 -9 -9 -9 -10 -10 -10 -10 -10 -11 -11 -11 -11 -11 -11 -11 -11 -11 -11 -11 -11 -11 -10 -10 -10 -10 -11 -11 -10 -10 -10 -11 -11 -11 -11 -11 -11 -11 -12 -12 -12 -12 -12 -12 -12 -12
-5 -5 -5 -5 -6 -6 -6 -6 -7 -7 -7 -7 -7 -8 -8 -8 -8 -8 -8 -8 -8 -8 -9 -9 -9 -9 -9 -9 -9 -10 -10 -10 -10 -11 -11 -11 -11 -11 -11 -11 -11 -11 -11 -11 -11 -10 -10 -10 -11 -11 -11 -10 -10 -10 -11 -11 -11 -11 -11 -11 -12 -12 -12 -12 -12 -12 -12 -12 -12
-5 -5 -5 -5 -6 -6 -6 -6 -6 -7 -7 -7 -8 -8 -8 -8 -8 -8 -8 -8 -8 -8 -8 -8 -9 -9 -9 -9 -9 -10 -10 -10 -10 -10 -10 -10 -10 -10 -10 -10 -11 -11 -11 -11 -10 -10 -11 -11 -11 -11 -10 -10 -10 -10 -10 -11 -11 -11 -11 -12 -12 -12 -12 -12 -12 -12 -12 -12 -12
-5 -5 -5 -5 -6 -6 -6 -6 -7 -7 -7 -7 -8 -8 -8 -8 -8 -8 -8 -8 -8 -8 -8 -8 -8 -8 -9 -9 -10 -10 -10 -10 -10 -10 -10 -10 -10 -10 -10 -10 -10 -10 -10 -10 -10 -10 -11 -11 -10 -10 -10 -10 -10 -10 -10 -10 -11 -11 -11 -12 -12 -12 -12 -12 -12 -12 -12 -12 -12
-5 -5 -5 -5 -6 -6 -6 -6 -7 -7 -7 -7 -8 -8 -8 -8 -8 -8 -8 -8 -8 -8 -8 -8 -8 -8 -9 -9 -10 -10 -10 -10 -10 -10 -10 -10 -10 -10 -10 -10 -10 -10 -10 -10 -10 -10 -11 -11 -10 -10 -10 -10 -10 -10 -10 -10 -11 -11 -11 -12 -12 -12 -12 -12 -12 -12 -12 -12 -12
-5 -5 -5 -5 -6 -6 -6 -6 -7 -7 -7 -7 -8 -8 -8 -8 -8 -8 -8 -8 -8 -8 -8 -8 -8 -9 -9 -10 -10 -10 -10 -10 -10 -10 -10 -10 -10 -10 -10 -10 -10 -10 -10 -10 -10 -10 -11 -10 -10 -10 -10 -10 -10 -9 -10 -10 -10 -11 -11 -11 -12 -12 -12 -12 -12 -12 -12 -12 -12
-5 -5 -5 -5 -6 -6 -6 -7 -7 -7 -7 -7 -8 -8 -8 -8 -8 -8 -8 -8 -8 -8 -9 -9 -9 -9 -9 -10 -10 -10 -10 -10 -10 -10 -10 -10 -10 -10 -10 -10 -10 -10 -9 -9 -10 -10 -11 -10 -10 -10 -10 -10 -10 -10 -10 -10 -10 -11 -11 -11 -11 -12 -12 -12 -11 -12 -12 -12 -12
-5 -5 -5 -5 -6 -6 -6 -7 -7 -7 -7 -7 -7 -8 -8 -8 -8 -8 -8 -8 -9 -9 -9 -9 -9 -9 -9 -9 -9 -9 -9 -10 -10 -10 -10 -10 -10 -10 -10 -10 -10 -9 -9 -9 -9 -10 -10 -10 -10 -10 -10 -10 -10 -10 -9 -10 -10 -10 -11 -11 -11 -11 -11 -11 -11 -11 -12 -12 -12
-5 -5 -5 -5 -6 -6 -6 -7 -7 -7 -7 -7 -7 -7 -8 -8 -8 -8 -9 -9 -9 -9 -9 -9 -9 -9 -9 -9 -9 -9 -9 -10 -10 -10 -10 -10 -10 -9 -9 -9 -9 -9 -9 -9 -9 -10 -10 -10 -10 -10 -10 -10 -10 -9 -9 -10 -10 -10 -10 -11 -11 -11 -11 -11 -11 -11 -11 -12 -12
-5 -5 -5 -5 -6 -6 -6 -7 -7 -7 -7 -7 -7 -7 -8 -8 -8 -9 -9 -9 -9 -9 -9 -9 -9 -9 -9 -9 -9 -9 -9 -9 -9 -9 -9 -9 -9 -9 -9 -9 -9 -9 -9 -9 -9 -10 -10 -10 -10 -10 -10 -10 -9 -9 -9 -9 -10 -10 -10 -10 -11 -11 -11 -11 -11 -11 -11 -12 -12
-5 -5 -5 -5 -6 -6 -6 -6 -7 -7 -7 -7 -7 -8 -8 -8 -8 -8 -9 -9 -9 -9 -9 -9 -9 -9 -9 -10 -10 -10 -9 -9 -9 -9 -9 -9 -9 -9 -9 -9 -9 -9 -9 -9 -9 -10 -10 -10 -10 -10 -10 -9 -9 -9 -9 -9 -9 -10 -10 -10 -11 -11 -11 -11 -11 -11 -11 -12 -12
-4 -5 -5 -5 -5 -6 -6 -6 -7 -7 -7 -7 -7 -7 -8 -8 -8 -8 -8 -9 -9 -9 -9 -9 -9 -9 -10 -10 -10 -10 -9 -9 -9 -9 -9 -9 -9 -9 -9 -9 -9 -9 -9 -9 -9 -10 -10 -10 -10 -10 -10 -9 -9 -9 -9 -9 -9 -10 -10 -10 -11 -11 -11 -11 -11 -11 -11 -12 -12
-4 -5 -5 -5 -5 -6 -6 -6 -6 -7 -7 -7 -7 -7 -8 -8 -8 -8 -9 -9 -9 -9 -9 -9 -9 -9 -9 -9 -9 -9 -9 -9 -9 -9 -8 -8 -8 -9 -9 -9 -9 -8 -9 -9 -9 -9 -10 -10 -10 -10 -10 -9 -9 -9 -9 -9 -9 -10 -10 -10 -11 -11 -11 -11 -11 -11 -11 -12 -12
-4 -5 -5 -5 -5 -6 -6 -6 -6 -7 -7 -7 -7 -7 -8 -8 -8 -8 -8 -8 -8 -8 -9 -9 -9 -9 -9 -9 -9 -9 -9 -9 -9 -9 -8 -8 -8 -9 -9 -9 -8 -8 -9 -9 -9 -9 -9 -9 -10 -10 -9 -9 -9 -9 -9 -9 -10 -10 -10 -10 -10 -10 -10 -11 -11 -11 -11 -11 -12
-4 -5 -5 -5 -5 -5 -6 -6 -6 -6 -7 -7 -7 -7 -8 -8 -8 -8 -8 -8 -8 -8 -8 -9 -9 -9 -9 -9 -9 -9 -9 -9 -9 -9 -8 -8 -8 -9 -9 -8 -8 -8 -9 -9 -9 -9 -9 -9 -9 -9 -9 -9 -9 -9 -9 -9 -10 -10 -10 -10 -10 -10 -10 -10 -11 -11 -11 -11 -12
-4 -4 -5 -5 -5 -5 -6 -6 -6 -6 -6 -7 -7 -7 -7 -8 -8 -8 -8 -8 -8 -8 -8 -8 -8 -9 -9 -9 -9 -9 -9 -9 -9 -9 -8 -8 -9 -9 -9 -8 -8 -8 -9 -9 -9 -9 -9 -9 -9 -9 -9 -9 -9 -9 -9 -10 -10 -10 -10 -10 -10 -10 -10 -10 -11 -11 -11 -11 -12
-4 -4 -5 -5 -5 -5 -5 -6 -6 -6 -6 -6 -7 -7 -7 -7 -7 -8 -8 -8 -8 -8 -8 -8 -8 -8 -9 -9 -9 -9 -9 -9 -9 -9 -8 -8 -8 -9 -9 -8 -8 -8 -9 -9 -9 -9 -9 -9 -9 -9 -8 -8 -9 -9 -9 -9 -10 -10 -10 -10 -10 -10 -10 -10 -10 -11 -11 -11 -11
-4 -4 -4 -5 -5 -5 -5 -5 -6 -6 -6 -6 -6 -7 -7 -7 -7 -7 -8 -8 -8 -8 -8 -8 -8 -8 -9 -9 -9 -9 -9 -8 -8 -8 -8 -8 -8 -8 -8 -9 -9 -9 -9 -9 -9 -9 -9 -9 -8 -8 -8 -8 -8 -9 -9 -9 -9 -9 -10 -10 -10 -10 -10 -10 -11 -11 -11 -11 -11
-4 -4 -4 -5 -5 -5 -5 -5 -5 -6 -6 -6 -6 -6 -7 -7 -7 -7 -7 -7 -8 -8 -8 -8 -8 -8 -9 -9 -9 -9 -9 -8 -8 -8 -8 -8 -8 -8 -8 -9 -9 -9 -9 -9 -9 -9 -9 -9 -8 -8 -8 -8 -8 -8 -8 -8 -9 -9 -9 -10 -10 -10 -10 -10 -11 -11 -11 -11 -11
-4 -4 -4 -4 -5 -5 -5 -5 -5 -5 -6 -6 -6 -6 -6 -6 -7 -7 -7 -7 -8 -8 -8 -8 -8 -8 -8 -9 -9 -9 -9 -8 -8 -8 -8 -8 -8 -8 -9 -9 -9 -9 -9 -9 -9 -9 -9 -8 -8 -8 -8 -8 -8 -8 -8 -8 -9 -9 -9 -10 -10 -10 -10 -11 -11 -11 -11 -11 -11
Height
1543 1541 1540 1539 1537 1536 1535 1533 1532 1531 1529 1528 1527 1526 1524 1523 1522 1521 1520 1519 1517 1516 1515 1513 1512 1511 1509 1508 1506 1505 1503 1502 1501 1499 1498 1496 1495 1494 1492 1491 1489 1487 1485 1483 1481 1479 1476 1474 1472 1470 1468 1467 1465 1463 1461 1459 1457 1455 1453 1452 1450 1448 1446 1445 1443 1442 1441 1439 1438
1541 1540 1539 1538 1536 1535 1534 1532 1531 1530 1528 1527 1526 1525 1524 1522 1521 1520 1519 1518 1517 1515 1514 1512 1511 1510 1508 1507 1505 1504 1502 1501 1499 1498 1496 1495 1494 1493 1491 1490 1488 1486 1485 1482 1480 1478 1476 1474 1472 1470 1468 1466 1465 1463 1461 1459 1457 1455 1453 1452 1450 1448 1446 1445 1443 1441 1440 1439 1437
1541 1539 1538 1537 1535 1534 1533 1531 1530 1529 1528 1526 1525 1524 1523 1522 1521 1519 1518 1517 1516 1514 1513 1512 1510 1509 1507 1506 1504 1503 1501 1500 1498 1497 1496 1494 1493 1492 1491 1489 1487 1486 1484 1482 1480 1478 1476 1474 1471 1470 1468 1466 1465 1463 1461 1459 1457 1456 1453 1452 1450 1448 1446 1445 1443 1442 1440 1439 1437
1540 1538 1537 1536 1535 1533 1532 1531 1529 1528 1527 1526 1524 1523 1522 1521 1520 1518 1517 1516 1515 1514 1512 1511 1509 1508 1506 1505 1503 1501 1500 1499 1497 1496 1495 1493 1492 1491 1490 1488 1486 1485 1483 1481 1479 1477 1475 1473 1471 1469 1467 1466 1464 1462 1461 1459 1457 1456 1454 1452 1450 1448 1447 1445 1443 1442 1440 1439 1437
1539 1537 1536 1535 1534 1533 1531 1530 1528 1527 1526 1525 1523 1522 1521 1520 1519 1517 1516 1515 1514 1513 1511 1510 1508 1507 1505 1504 1502 1500 1499 1497 1496 1495 1494 1492 1491 1490 1488 1487 1486 1484 1482 1480 1478 1477 1475 1473 1471 1469 1467 1465 1463 1462 1460 1459 1457 1455 1453 1452 1450 1448 1446 1445 1443 1441 1440 1439 1437
1537 1536 1535 1534 1533 1531 1530 1529 1528 1526 1525 1524 1522 1521 1520 1519 1518 1517 1516 1514 1513 1511 1510 1509 1507 1506 1504 1502 1501 1499 1498 1496 1495 1494 1493 1491 1490 1489 1487 1486 1484 1483 1481 1479 1478 1476 1474 1472 1471 1468 1466 1465 1463 1461 1459 1458 1456 1454 1453 1451 1450 1448 1447 1445 1443 1441 1440 1439 1437
1537 1536 1534 1533 1531 1530 1529 1528 1526 1525 1524 1523 1521 1520 1519 1518 1517 1516 1515 1513 1512 1511 1509 1508 1506 1505 1503 1501 1499 1498 1496 1495 1494 1493 1492 1491 1489 1488 1486 1485 1483 1481 1480 1478 1477 1475 1474 1472 1470 1468 1466 1464 1462 1460 1459 1457 1455 1454 1452 1451 1449 1448 1446 1445 1443 1441 1440 1438 1437
1536 1535 1533 1532 1531 1529 1528 1527 1525 1524 1523 1522 1521 1520 1518 1517 1516 1515 1513 1512 1511 1509 1508 1506 1505 1503 1502 1500 1498 1497 1496 1494 1493 1492 1491 1490 1488 1487 1485 1484 1482 1481 1479 1478 1476 1475 1473 1471 1470 1468 1466 1464 1462 1460 1458 1456 1455 1453 1451 1450 1448 1447 1446 1444 1443 1441 1440 1438 1436
1535 1533 1532 1531 1530 1528 1527 1526 1525 1523 1522 1521 1520 1519 1517 1516 1515 1514 1512 1511 1510 1508 1507 1505 1504 1502 1501 1499 1497 1496 1494 1493 1492 1491 1490 1488 1487 1486 1484 1483 1481 1480 1478 1477 1476 1474 1472 1471 1469 1467 1466 1464 1462 1460 1458 1456 1454 1452 1451 1449 1447 1446 1445 1443 1442 1441 1439 1437 1436
1533 1532 1531 1530 1529 1527 1526 1525 1524 1522 1521 1520 1519 1518 1516 1515 1514 1512 1511 1510 1508 1507 1506 1504 1503 1501 1499 1498 1496 1495 1493 1492 1491 1490 1489 1487 1486 1485 1483 1482 1480 1479 1477 1476 1475 1473 1472 1471 1469 1467 1465 1463 1461 1459 1457 1456 1454 1452 1450 1448 1447 1445 1444 1442 1441 1440 1438 1436 1435
1532 1531 1530 1529 1528 1526 1525 1524 1523 1521 1520 1519 1518 1516 1515 1514 1513 1511 1510 1509 1507 1506 1504 1503 1501 1500 1498 1496 1495 1494 1492 1491 1490 1489 1488 1486 1485 1484 1482 1481 1480 1478 1477 1475 1474 1472 1471 1470 1468 1466 1465 1463 1461 1459 1457 1455 1453 1451 1450 1448 1446 1445 1443 1442 1440 1439 1437 1436 1434
1531 1530 1529 1528 1526 1525 1524 1523 1521 1520 1519 1518 1516 1515 1514 1513 1511 1510 1509 1507 1506 1505 1503 1502 1500 1499 1497 1496 1494 1493 1491 1490 1489 1488 1487 1486 1484 1483 1481 1480 1479 1477 1476 1475 1473 1471 1470 1468 1467 1465 1464 1462 1461 1459 1456 1455 1453 1451 1449 1447 1446 1444 1443 1441 1440 1438 1436 1435 1433
1530 1529 1528 1527 1526 1524 1523 1522 1521 1519 1518 1517 1516 1514 1513 1512 1511 1509 1508 1506 1505 1503 1502 1501 1499 1497 1496 1495 1493 1492 1490 1489 1488 1487 1486 1485 1483 1482 1481 1479 1478 1476 1475 1474 1472 1471 1469 1467 1466 1464 1463 1461 1460 1458 1456 1454 1452 1450 1448 1447 1445 1444 1442 1441 1439 1437 1435 1434 1432
1529 1528 1527 1526 1525 1523 1522 1521 1520 1518 1517 1516 1515 1513 1512 1511 1509 1508 1507 1505 1504 1502 1501 1499 1498 1496 1495 1494 1492 1491 1489 1488 1487 1486 1485 1483 1482 1481 1479 1478 1477 1476 1474 1473 1471 1470 1468 1466 1465 1463 1462 1460 1459 1457 1456 1454 1451 1450 1448 1446 1444 1443 1441 1440 1438 1436 1435 1433 1431
1528 1527 1526 1525 1524 1522 1521 1520 1519 1517 1516 1515 1514 1512 1511 1510 1508 1507 1506 1504 1502 1501 1500 1498 1497 1495 1494 1492 1491 1490 1488 1487 1486 1485 1483 1482 1481 1480 1478 1477 1476 1475 1473 1472 1470 1469 1467 1466 1464 1462 1461 1459 1458 1456 1455 1453 1451 1449 1447 1446 1444 1442 1441 1439 1437 1436 1434 1432 1430
1527 1526 1525 1524 1523 1522 1521 1519 1518 1517 1516 1514 1513 1511 1510 1509 1507 1506 1504 1503 1501 1500 1498 1497 1496 1494 1493 1491 1490 1489 1487 1486 1485 1483 1482 1481 1480 1478 1477 1476 1475 1473 1472 1471 1469 1468 1466 1465 1463 1461 1460 1458 1457 1455 1453 1451 1450 1448 1446 1445 1443 1441 1440 1438 1437 1435 1433 1431 1430
1526 1525 1524 1523 1522 1521 1520 1518 1517 1516 1515 1513 1512 1511 1509 1507 1506 1505 1503 1502 1500 1499 1497 1496 1495 1493 1491 1490 1489 1488 1486 1485 1483 1482 1481 1479 1478 1477 1475 1474 1473 1472 1471 1470 1468 1466 1465 1464 1462 1461 1459 1457 1456 1454 1452 1451 1449 1447 1446 1444 1442 1441 1439 1437 1436 1434 1432 1431 1429
1525 1524 1523 1522 1521 1520 1519 1517 1516 1515 1514 1512 1511 1510 1508 1506 1505 1504 1502 1501 1500 1498 1496 1495 1493 1492 1491 1489 1488 1486 1485 1483 1482 1481 1479 1478 1477 1476 1474 1473 1471 1470 1469 1468 1467 1465 1464 1462 1461 1459 1457 1456 1454 1453 1451 1450 1448 1446 1445 1443 1441 1440 1438 1437 1435 1434 1432 1430 1428
1524 1523 1522 1521 1520 1519 1518 1516 1515 1514 1513 1511 1510 1508 1507 1506 1504 1503 1501 1500 1499 1497 1496 1494 1492 1491 1490 1488 1487 1486 1484 1482 1481 1479 1478 1477 1476 1474 1473 1471 1470 1468 1467 1466 1465 1464 1462 1461 1459 1458 1456 1455 1453 1451 1450 1448 1447 1445 1443 1442 1440 1439 1437 1436 1435 1433 1431 1429 1427
1523 1522 1521 1520 1519 1518 1517 1516 1514 1513 1512 1510 1509 1507 1506 1505 1503 1502 1500 1499 1497 1496 1495 1493 1491 1490 1489 1487 1486 1484 1483 1481 1480 1478 1477 1476 1474 1473 1471 1470 1469 1467 1466 1465 1463 1462 1461 1460 1458 1456 1455 1453 1452 1450 1448 1447 1446 1444 1442 1441 1439 1438 1437 1436 1434 1432 1431 1429 1426
1522 1521 1520 1519 1518 1517 1516 1515 1513 1512 1511 1509 1508 1506 1505 1504 1502 1501 1500 1498 1496 1495 1494 1492 1491 1489 1487 1486 1485 1483 1482 1480 1479 1477 1476 1475 1473 1472 1470 1469 1467 1466 1464 1463 1462 1461 1459 1458 1457 1455 1454 1452 1451 1449 1447 1446 1444 1443 1441 1440 1438 1437 1436 1434 1433 1431 1429 1427 1426
1521 1520 1519 1518 1517 1516 1515 1514 1512 1511 1510 1508 1507 1506 1504 1503 1501 1500 1499 1497 1496 1494 1493 1491 1490 1488 1487 1485 1484 1482 1481 1479 1478 1476 1475 1474 1472 1471 1469 1468 1466 1465 1463 1462 1461 1459 1458 1457 1455 1454 1453 1452 1450 1448 1446 1444 1443 1441 1440 1438 1437 1436 1434 1433 1431 1430 1428 1426 1424
1520 1519 1518 1517 1516 1515 1514 1512 1511 1510 1509 1508 1506 1505 1503 1502 1501 1499 1498 1496 1495 1494 1492 1491 1489 1487 1486 1484 1483 1481 1480 1478 1477 1476 1474 1473 1471 1470 1468 1467 1465 1463 1462 1461 1459 1458 1457 1455 1454 1453 1452 1451 1449 1446 1445 1443 1441 1440 1438 1437 1436 1434 1433 1431 1430 1428 1426 1425 1423
1519 1518 1517 1516 1515 1514 1513 1511 1510 1509 1508 1506 1505 1504 1503 1501 1500 1499 1497 1496 1494 1493 1491 1489 1488 1486 1485 1483 1481 1480 1478 1477 1476 1474 1473 1471 1470 1469 1467 1466 1464 1462 1461 1460 1458 1457 1456 1455 1454 1453 1451 1449 1447 1445 1443 1442 1440 1438 1437 1435 1434 1432 1431 1430 1428 1427 1425 1424 1422
1518 1517 1516 1515 1514 1513 1512 1511 1509 1508 1507 1506 1505 1503 1502 1501 1499 1498 1496 1495 1493 1492 1490 1488 1487 1485 1484 1482 1480 1479 1478 1476 1475 1473 1471 1470 1469 1467 1466 1464 1463 1461 1460 1458 1457 1456 1456 1455 1454 1452 1450 1449 1446 1444 1441 1440 1438 1437 1436 1434 1433 1431 1430 1428 1427 1426 1424 1423 1421
1517 1516 1515 1514 1513 1512 1511 1509 1508 1507 1506 1505 1504 1502 1501 1500 1498 1497 1496 1494 1492 1491 1489 1488 1486 1484 1482 1481 1479 1478 1477 1476 1474 1472 1471 1469 1467 1466 1465 1463 1461 1460 1459 1457 1456 1455 1455 1454 1453 1451 1450 1448 1446 1443 1441 1439 1437 1436 1435 1433 1432 1430 1429 1428 1426 1425 1424 1422 1420
1516 1515 1514 1513 1512 1511 1510 1508 1507 1506 1505 1504 1503 1502 1501 1499 1497 1496 1495 1493 1491 1490 1489 1487 1485 1484 1482 1480 1479 1477 1476 1475 1473 1471 1470 1468 1466 1465 1463 1462 1460 1459 1457 1456 1455 1454 1453 1452 1451 1450 1449 1447 1445 1443 1441 1438 1436 1435 1434 1432 1431 1430 1429 1428 1426 1425 1423 1421 1419
1515 1514 1513 1512 1511 1510 1509 1507 1506 1506 1505 1503 1502 1501 1500 1498 1497 1495 1494 1492 1491 1489 1488 1486 1485 1483 1481 1480 1479 1477 1476 1474 1472 1470 1469 1467 1466 1464 1462 1461 1459 1458 1456 1455 1454 1453 1452 1451 1450 1449 1447 1446 1444 1442 1440 1438 1436 1434 1433 1432 1431 1430 1429 1427 1426 1424 1422 1420 1418
1514 1513 1512 1511 1510 1509 1508 1507 1506 1505 1504 1503 1501 1500 1499 1497 1496 1495 1493 1491 1490 1489 1487 1486 1484 1483 1481 1480 1478 1476 1475 1473 1471 1470 1468 1466 1465 1463 1461 1460 1458 1457 1456 1455 1453 1452 1451 1450 1449 1448 1446 1445 1443 1441 1439 1436 1435 1434 1433 1432 1431 1430 1428 1427 1425 1423 1421 1419 1417
1513 1512 1511 1510 1509 1508 1507 1506 1505 1504 1503 1502 1501 1499 1498 1496 1495 1494 1492 1491 1490 1488 1487 1486 1484 1482 1481 1479 1478 1476 1474 1473 1471 1469 1467 1466 1464 1462 1461 1459 1457 1456 1455 1454 1452 1451 1450 1449 1448 1447 1445 1444 1442 1440 1438 1436 1435 1434 1432 1431 1430 1429 1428 1426 1425 1423 1421 1419 1416
1512 1511 1510 1509 1508 1507 1506 1505 1504 1503 1502 1501 1500 1498 1497 1496 1494 1493 1492 1491 1489 1488 1486 1485 1483 1482 1481 1479 1477 1476 1474 1472 1471 1469 1467 1465 1463 1461 1460 1458 1456 1455 1454 1453 1451 1450 1449 1449 1447 1446 1444 1443 1441 1439 1437 1435 1434 1433 1432 1431 1430 1428 1427 1426 1424 1422 1420 1418 1416
1511 1510 1509 1508 1507 1506 1505 1504 1503 1502 1501 1500 1499 1497 1496 1495 1494 1492 1491 1490 1488 1487 1486 1484 1482 1481 1480 1478 1476 1475 1473 1472 1470 1468 1466 1465 1463 1461 1459 1458 1456 1455 1453 1452 1451 1450 1449 1448 1446 1445 1443 1442 1441 1439 1436 1435 1433 1432 1431 1430 1429 1427 1426 1425 1423 1421 1419 1417 1415
1510 1509 1508 1507 1506 1505 1504 1503 1502 1501 1500 1499 1498 1496 1495 1494 1493 1491 1490 1489 1488 1486 1485 1483 1482 1480 1479 1477 1476 1474 1473 1471 1470 1468 1466 1464 1462 1461 1459 1457 1456 1455 1453 1452 1451 1449 1448 1447 1446 1444 1443 1441 1440 1438 1435 1433 1432 1431 1430 1429 1428 1427 1426 1424 1422 1420 1418 1416 1414
1509 1508 1507 1506 1505 1504 1503 1502 1501 1501 1499 1498 1497 1496 1495 1493 1492 1491 1489 1488 1487 1486 1484 1483 1481 1480 1478 1477 1475 1474 1472 1471 1469 1467 1466 1464 1462 1461 1459 1457 1456 1455 1453 1452 1450 1449 1448 1446 1445 1443 1442 1440 1438 1436 1434 1432 1431 1430 1429 1428 1427 1426 1425 1424 1422 1420 1418 1416 1414
1508 1507 1506 1505 1504 1503 1502 1501 1501 1500 1498 1497 1496 1495 1494 1492 1491 1490 1489 1487 1486 1485 1483 1482 1481 1479 1478 1476 1475 1473 1472 1470 1468 1467 1465 1464 1462 1461 1459 1457 1456 1455 1453 1452 1450 1449 1447 1445 1444 1442 1441 1439 1437 1435 1433 1431 1430 1429 1428 1427 1426 1426 1424 1423 1421 1419 1417 1416 1414
1506 1506 1505 1504 1503 1502 1501 1501 1500 1499 1497 1496 1495 1494 1493 1491 1491 1489 1488 1487 1486 1484 1483 1481 1480 1478 1477 1476 1474 1472 1471 1470 1468 1466 1465 1463 1462 1460 1459 1457 1456 1455 1453 1451 1450 1448 1446 1444 1443 1441 1440 1438 1436 1433 1431 1430 1428 1428 1427 1426 1425 1425 1423 1422 1421 1419 1417 1415 1413
1506 1505 1504 1503 1502 1501 1501 1500 1499 1498 1496 1496 1494 1493 1492 1491 1490 1488 1487 1486 1484 1483 1482 1481 1479 1478 1476 1475 1473 1472 1471 1469 1468 1466 1464 1463 1461 1460 1458 1457 1456 1454 1452 1451 1449 1446 1445 1443 1441 1440 1438 1437 1435 1432 1430 1428 1427 1426 1426 1425 1424 1424 1423 1421 1420 1418 1416 1415 1413
1504 1503 1503 1502 1501 1501 1500 1499 1498 1497 1496 1494 1493 1492 1491 1490 1489 1488 1486 1485 1484 1482 1481 1479 1478 1477 1475 1474 1472 1471 1470 1469 1467 1466 1464 1462 1461 1460 1458 1456 1455 1453 1452 1450 1448 1446 1445 1443 1441 1439 1438 1436 1434 1432 1430 1428 1426 1426 1425 1424 1424 1423 1422 1421 1419 1418 1416 1414 1413
1503 1502 1502 1501 1501 1500 1499 1498 1497 1496 1494 1493 1492 1491 1490 1489 1488 1487 1486 1484 1483 1481 1480 1479 1477 1476 1475 1473 1471 1470 1469 1468 1467 1465 1464 1462 1461 1459 1458 1456 1454 1453 1451 1449 1448 1446 1445 1443 1441 1439 1437 1436 1434 1431 1429 1427 1426 1426 1425 1424 1423 1422 1421 1420 1419 1417 1416 1414 1412
1502 1501 1501 1500 1499 1499 1498 1497 1496 1495 1494 1492 1491 1491 1489 1488 1487 1486 1485 1483 1482 1481 1480 1478 1477 1475 1474 1472 1471 1470 1468 1467 1466 1465 1463 1461 1460 1459 1457 1456 1454 1452 1451 1449 1448 1446 1445 1443 1441 1439 1436 1435 1433 1431 1429 1428 1427 1426 1425 1424 1423 1421 1421 1419 1418 1416 1415 1413 1411
1501 1500 1500 1499 1498 1497 1497 1496 1495 1494 1493 1492 1491 1490 1489 1487 1486 1485 1484 1483 1481 1480 1479 1477 1476 1475 1473 1472 1470 1469 1468 1466 1465 1464 1463 1461 1460 1459 1457 1456 1454 1452 1451 1449 1448 1447 1445 1443 1441 1439 1437 1435 1432 1431 1429 1428 1427 1426 1425 1423 1422 1421 1420 1419 1417 1416 1414 1412 1411
Wind_Speed
20 20 21 21 21 21 21 21 21 21 20 20 20 20 19 19 19 19 19 19 19 20 20 21 21 22 23 23 23 23 24 24 24 24 24 23 23 24 24 25 26 27 27 29 28 28 28 28 28 27 25 23 23 24 25 25 25 25 25 24 23 23 23 24 24 23 23 23 22
19 20 20 20 21 21 21 21 20 20 20 20 20 19 19 19 19 18 18 19 19 20 21 21 21 22 23 24 23 23 24 24 24 23 23 23 23 23 24 24 25 26 27 28 28 27 27 28 27 26 24 22 22 23 24 25 26 27 27 26 25 24 24 23 23 23 23 23 23
19 20 20 20 20 20 20 20 19 19 19 19 19 19 19 19 18 18 19 19 20 21 21 21 22 23 24 24 23 24 24 24 23 22 22 22 22 22 23 24 25 26 27 28 27 26 27 27 26 25 23 22 21 21 22 24 26 27 27 27 26 25 24 24 23 23 23 23 22
19 19 19 20 20 20 19 19 19 19 19 19 19 19 19 19 19 19 19 20 20 21 21 22 23 23 23 24 24 24 24 23 21 21 21 22 22 22 22 23 24 26 27 28 27 26 26 26 26 24 23 22 21 21 21 23 24 25 26 26 26 26 25 24 24 23 22 22 22
18 19 19 19 19 19 19 19 19 19 19 19 19 19 19 19 19 19 19 20 20 21 22 23 23 23 23 24 24 25 24 22 20 20 20 21 22 22 22 23 24 26 27 28 27 27 26 26 25 24 23 22 22 21 21 22 23 23 24 24 25 25 25 24 24 23 23 22 22
18 19 19 19 19 19 19 19 19 19 19 19 19 19 19 18 19 19 20 20 21 22 22 22 23 23 23 24 24 24 23 21 20 19 20 21 21 22 22 23 24 26 27 27 28 27 27 27 26 25 24 23 22 22 22 22 23 23 23 23 23 23 23 23 23 23 23 23 23
18 18 18 18 19 19 19 19 19 19 19 19 19 19 19 18 19 19 20 21 21 22 22 22 22 23 23 24 24 24 22 20 20 20 20 20 21 21 22 23 24 25 26 27 27 28 28 27 26 25 25 24 24 23 23 23 23 23 23 23 22 22 22 22 22 22 23 23 23
17 17 18 18 18 18 19 19 19 19 19 19 19 19 19 19 19 20 20 21 21 21 22 22 22 23 23 24 24 23 21 20 20 20 20 20 21 21 21 22 23 24 25 26 27 28 28 28 26 26 26 25 24 24 24 24 24 24 24 24 23 23 22 22 22 22 23 23 24
17 17 18 18 18 18 18 19 19 19 19 19 19 19 19 19 19 20 20 21 21 22 22 22 23 23 23 24 23 22 21 20 20 20 20 21 21 21 21 22 22 23 24 25 26 27 27 27 27 26 26 25 24 24 25 25 25 25 25 25 25 24 24 24 24 24 24 24 24
17 17 18 18 18 18 18 18 19 19 19 19 19 19 19 19 19 19 20 20 21 22 22 22 22 23 23 23 22 21 20 20 20 20 21 21 21 21 21 21 22 22 23 24 25 25 26 26 26 25 25 24 24 25 25 25 25 26 26 26 26 26 26 26 25 25 25 25 25
17 17 17 17 17 18 18 18 19 19 19 19 19 19 19 19 19 19 20 20 21 21 21 22 22 23 23 23 22 21 21 20 20 20 21 21 21 21 21 21 21 22 22 23 24 24 24 24 24 24 23 24 24 24 25 25 25 26 26 26 26 27 27 27 27 27 27 27 27
16 17 17 17 17 18 18 19 19 19 19 19 20 20 20 20 20 20 20 20 21 21 21 22 22 22 22 22 22 22 21 21 20 21 21 21 22 21 21 21 21 21 22 23 23 23 23 22 22 22 22 22 23 23 24 24 25 25 25 26 26 27 27 28 29 29 29 29 28
16 16 17 17 17 18 18 19 19 19 20 20 20 20 20 20 20 20 20 21 21 21 21 22 22 22 22 22 22 22 21 21 21 21 21 22 22 22 22 21 21 21 22 22 22 22 22 21 21 21 21 21 21 21 22 23 23 24 24 25 25 26 27 28 29 30 30 31 30
16 16 16 17 17 18 18 19 19 20 20 20 20 20 20 20 20 20 20 21 21 21 21 22 22 22 22 22 22 22 22 21 21 21 21 22 23 23 23 22 21 21 21 22 22 22 21 21 20 20 20 20 20 20 20 21 21 22 23 23 24 25 26 27 28 29 30 31 31
15 15 16 16 16 17 18 18 19 19 19 20 20 20 20 20 20 20 20 21 21 21 21 21 22 22 22 22 22 22 22 22 21 21 22 23 23 24 24 23 22 21 21 21 21 22 22 21 21 21 21 20 20 20 19 20 20 21 22 22 23 24 25 26 27 28 29 30 31
14 15 15 15 16 16 17 18 18 19 19 19 19 20 20 20 21 21 21 21 21 21 21 21 22 22 22 22 22 22 22 22 22 22 22 23 23 25 25 25 24 23 22 22 21 22 22 22 22 22 22 21 21 20 19 19 20 20 21 22 23 24 24 25 26 27 28 29 30
14 14 15 15 15 16 17 17 18 18 19 19 19 20 20 20 21 21 21 21 21 22 22 22 22 22 22 22 22 22 22 23 23 23 22 23 23 25 26 26 26 25 24 23 22 22 22 23 23 23 23 22 21 20 19 19 19 20 21 22 23 23 24 25 26 26 27 28 29
14 14 14 15 15 15 16 17 17 18 18 19 19 19 20 20 21 21 21 21 21 21 22 22 22 22 22 22 22 23 23 23 23 23 23 23 23 25 26 27 27 27 26 25 24 23 23 24 24 25 25 24 23 21 20 19 19 20 21 21 22 22 23 24 25 26 27 28 29
13 14 14 14 15 15 16 16 17 17 18 18 19 19 19 20 20 21 21 21 21 21 22 22 22 22 22 22 22 23 23 23 23 23 23 23 23 24 25 26 27 27 27 27 26 25 24 24 25 25 26 26 25 23 21 19 19 20 20 20 21 21 21 23 24 25 26 28 29
13 13 13 14 14 15 15 16 16 17 17 18 18 19 19 20 20 21 21 21 22 22 22 22 22 22 22 22 22 23 23 23 23 23 23 23 24 24 25 26 26 26 27 27 27 26 26 25 25 26 27 28 26 24 22 20 20 20 20 20 20 19 20 21 22 24 25 27 29
13 13 13 14 14 14 15 15 16 16 17 18 18 19 19 19 20 20 21 21 21 22 22 22 22 22 22 22 22 22 22 22 22 22 23 23 24 24 25 25 25 26 26 26 26 26 26 25 25 26 28 29 28 26 23 21 21 21 21 20 19 18 19 20 21 23 25 27 28
13 13 13 13 14 14 14 15 16 16 17 17 18 18 19 19 20 20 20 21 21 21 22 22 22 22 22 22 22 22 22 22 22 22 22 23 24 24 24 24 24 24 25 25 25 26 26 25 25 26 29 30 29 27 24 22 21 22 22 21 19 19 19 20 21 23 24 26 28
12 13 13 13 13 14 14 15 15 16 16 17 17 18 19 19 20 20 20 20 21 21 21 22 22 22 22 21 21 21 21 21 22 22 22 22 23 23 23 23 23 23 24 24 24 24 24 25 25 27 29 31 30 27 24 22 22 22 22 21 20 19 19 20 21 23 24 26 27
12 12 13 13 13 13 14 14 15 16 16 17 17 18 19 19 19 20 20 20 21 21 21 22 22 22 22 21 21 21 21 22 22 22 22 22 22 22 22 22 22 22 23 23 23 23 23 24 25 27 29 31 30 27 25 23 23 23 22 21 20 20 20 20 21 22 24 25 27
12 12 12 13 13 13 14 14 15 15 16 17 17 18 18 19 19 20 20 20 21 21 22 22 22 22 22 22 22 22 22 22 23 23 22 22 22 22 22 22 22 22 22 21 21 21 22 23 24 26 28 30 29 27 25 25 24 23 22 21 20 20 20 21 21 22 23 25 27
11 12 12 12 13 13 13 14 15 15 16 17 17 17 18 18 19 20 20 21 21 22 22 23 23 23 23 23 23 23 23 23 23 23 23 23 23 23 23 22 22 22 21 20 20 21 22 23 24 24 26 27 28 27 26 26 25 23 23 22 20 19 20 21 22 22 23 25 27
11 11 12 12 12 13 13 14 15 15 16 16 17 17 18 18 19 19 20 21 22 22 22 23 23 23 23 23 23 23 23 23 24 24 24 25 25 24 24 23 22 21 20 20 20 20 22 23 23 24 24 25 26 27 28 28 26 25 24 22 20 19 19 20 21 22 24 26 28
10 11 11 12 12 12 13 14 14 15 16 16 17 17 17 18 18 19 20 21 22 22 23 23 23 23 23 23 23 24 24 24 24 25 25 25 25 25 24 24 23 21 20 19 19 20 21 22 23 23 24 24 25 27 28 28 26 25 25 22 20 19 18 20 22 24 25 26 28
10 11 11 11 11 12 12 13 14 15 15 16 16 17 17 17 18 19 20 21 22 22 23 23 23 23 23 23 23 24 24 24 25 25 25 26 26 25 25 24 23 22 20 19 19 19 20 21 23 24 24 24 25 26 27 25 25 25 25 23 19 18 19 21 23 25 26 27 28
10 10 11 11 11 12 12 13 14 14 15 16 16 17 17 17 18 19 20 21 21 22 22 22 22 22 23 23 23 23 24 24 24 25 25 26 26 26 25 24 24 22 21 20 19 20 21 22 23 24 25 25 26 26 25 23 24 26 26 23 20 19 20 21 24 26 27 28 28
10 10 11 11 11 12 12 12 13 14 15 16 16 16 17 17 18 19 20 20 21 21 21 21 22 22 22 22 22 22 23 23 24 24 25 25 26 26 25 24 24 23 21 21 21 21 22 23 24 25 26 26 27 26 24 23 24 26 26 23 20 19 20 22 25 27 27 28 29
9 10 10 11 11 11 12 12 13 14 15 16 16 17 17 17 18 18 19 20 20 21 21 22 22 22 22 22 22 22 22 22 23 23 24 24 25 25 25 24 24 23 22 22 22 23 24 24 25 25 26 27 27 27 25 24 24 25 24 21 19 18 19 22 24 26 27 28 28
9 10 10 11 11 11 12 12 13 14 15 16 16 16 17 17 18 18 19 20 20 21 21 22 22 22 22 22 22 21 21 21 22 22 23 24 24 24 24 24 24 23 23 23 23 24 24 25 25 25 26 27 28 28 26 24 24 23 22 19 18 18 19 21 23 25 27 27 27
9 10 10 11 11 12 12 12 13 14 15 15 16 16 17 17 18 18 19 20 20 21 21 21 21 21 21 21 21 21 20 20 21 21 22 23 23 23 24 24 24 24 23 24 24 24 24 24 24 25 26 27 28 29 27 24 22 20 19 17 17 18 20 21 23 24 25 26 26
9 9 10 10 11 12 12 13 13 14 15 16 16 16 16 17 17 18 19 19 20 20 21 21 21 21 21 21 20 20 19 19 19 20 21 21 22 23 23 24 24 24 24 24 24 24 24 24 24 25 26 27 29 30 27 23 19 17 15 15 17 18 19 20 21 22 23 25 25
9 9 10 10 11 11 12 13 13 14 15 16 16 16 17 17 17 18 18 19 20 20 21 21 21 21 21 21 20 19 18 18 18 19 19 20 21 22 23 24 25 25 26 26 26 26 26 26 25 26 26 28 30 30 28 22 17 14 13 14 16 18 19 20 20 21 22 23 23
9 9 10 10 11 11 12 13 13 14 15 15 16 17 17 17 17 18 18 19 20 21 21 21 21 21 21 21 20 19 18 17 17 17 18 19 19 21 22 24 25 26 27 28 29 30 29 29 29 28 28 28 30 30 28 22 16 13 13 14 16 17 19 20 20 20 21 22 22
9 9 10 10 11 11 12 12 13 14 15 15 16 16 17 17 17 18 18 19 20 21 22 22 22 22 22 22 21 19 18 16 16 16 17 18 19 20 22 24 26 27 29 30 31 31 30 31 31 31 29 28 29 29 28 22 16 14 14 16 17 18 19 19 19 20 20 21 21
10 10 10 10 11 11 12 12 13 14 15 15 16 16 17 17 17 18 18 19 20 21 22 22 22 22 22 22 21 20 18 16 15 16 17 18 19 21 23 25 26 28 29 31 31 30 30 31 32 32 30 28 27 28 27 23 17 15 16 18 18 18 18 19 19 19 20 21 21
10 10 10 10 11 11 12 12 13 13 14 15 16 16 17 17 18 18 19 19 20 21 22 22 23 23 23 22 22 20 18 16 16 16 17 19 20 22 23 25 27 28 29 30 29 28 28 29 31 32 31 28 27 26 25 22 17 16 17 19 19 18 18 18 18 19 20 21 21
10 10 10 10 11 11 12 12 13 13 14 14 15 16 17 17 18 18 19 19 20 20 22 22 23 23 23 22 21 20 18 18 17 17 18 19 21 22 24 25 27 28 29 29 27 26 26 27 30 31 30 28 26 25 23 19 16 17 19 20 20 19 18 18 19 20 21 21 22
Wind_Direction
337 338 339 339 339 339 339 340 340 340 339 338 335 333 331 329 326 324 322 320 318 317 317 317 316 315 316 316 316 315 316 318 321 324 326 327 327 327 327 329 330 330 331 333 336 338 339 341 342 342 340 336 333 336 339 342 344 345 343 341 337 334 333 331 329 328 327 324 322
337 338 338 338 339 339 339 340 340 339 338 336 334 332 330 326 324 321 319 319 318 318 317 316 314 314 315 315 315 315 316 319 322 326 328 328 328 327 327 328 329 330 331 334 339 341 341 340 339 340 340 339 335 334 335 338 341 343 343 343 342 341 340 338 338 338 337 335 334
337 337 338 339 339 339 339 339 338 337 336 334 332 331 329 326 323 320 319 319 318 318 316 314 313 314 315 315 315 315 316 319 322 326 328 328 328 328 327 328 328 329 332 336 341 344 343 341 339 338 338 340 338 335 334 335 338 339 341 342 343 344 344 343 344 344 344 343 343
336 337 338 339 339 339 339 338 337 336 335 333 332 331 329 326 323 320 319 318 317 317 316 315 315 315 315 315 314 315 317 319 323 326 329 329 329 329 328 327 328 329 332 337 343 346 347 344 340 338 337 338 339 337 335 334 335 337 338 340 341 342 343 344 345 345 345 346 347
336 337 337 338 339 339 339 339 339 337 336 334 332 330 328 325 322 319 317 316 316 316 316 316 316 315 314 314 314 316 318 320 323 326 330 331 331 331 330 329 330 330 332 336 342 346 348 347 344 341 339 339 339 337 336 335 335 336 337 338 338 339 340 341 342 342 342 342 344
335 336 336 337 338 340 340 341 340 339 337 335 333 330 327 323 320 318 317 316 317 317 317 316 316 316 315 315 315 317 318 320 323 327 330 331 332 332 332 332 332 332 333 335 339 343 347 348 346 344 342 342 341 341 341 340 339 339 339 338 337 336 337 337 337 337 336 336 337
334 334 335 337 338 340 341 342 342 341 339 337 333 330 326 322 319 317 317 317 317 317 317 317 318 317 317 316 317 318 319 320 322 326 329 330 330 331 331 332 332 332 333 335 336 339 342 345 345 344 344 344 343 343 345 346 345 343 342 340 339 337 336 335 334 333 332 332 331
332 333 335 336 338 340 342 343 343 342 339 337 334 331 327 324 320 319 318 318 317 317 319 319 319 319 318 317 318 319 319 320 322 325 327 328 330 330 330 330 331 332 333 334 334 335 337 340 342 344 346 346 344 343 345 347 348 348 347 345 343 340 339 337 335 334 332 330 329
331 333 334 337 339 341 343 343 343 342 340 337 335 333 329 326 323 321 319 318 318 319 320 321 320 319 319 319 319 319 319 320 321 323 325 327 329 330 330 329 329 330 332 333 333 333 333 335 338 341 345 346 345 345 346 348 349 349 349 348 346 344 342 341 339 337 334 333 332
332 333 335 338 340 342 343 343 343 342 341 339 337 335 332 328 325 322 320 319 319 320 320 320 320 320 320 320 321 320 319 319 319 320 322 324 327 328 329 329 328 328 330 331 332 331 330 329 332 337 342 345 346 346 347 348 348 349 349 348 346 345 344 343 342 340 339 337 336
331 333 336 338 340 341 342 342 343 342 341 339 338 336 334 331 327 324 322 320 320 320 319 320 320 320 321 322 321 320 319 317 317 318 319 321 323 326 329 329 329 329 330 331 332 330 328 326 327 331 336 341 343 345 346 347 347 347 347 347 346 345 344 343 342 341 341 340 339
331 333 336 338 339 341 342 342 342 342 341 340 339 337 335 332 330 327 324 322 320 319 319 320 320 321 322 322 321 319 317 316 315 315 316 317 320 324 328 330 331 331 332 333 334 332 328 324 323 325 330 336 339 342 344 345 345 346 346 346 346 345 343 342 341 340 339 339 338
331 333 336 338 339 340 341 342 342 341 341 340 338 337 335 333 331 329 326 324 321 320 320 320 321 322 322 321 320 318 316 315 314 313 313 313 315 319 324 328 331 333 335 336 337 336 332 326 322 321 324 329 334 338 341 343 344 345 346 346 346 345 343 341 340 338 337 336 336
330 333 336 338 339 340 340 341 341 341 340 340 338 336 335 334 333 331 328 325 323 322 321 321 321 321 320 320 319 318 316 315 313 312 311 311 312 315 319 324 328 332 335 337 339 338 335 329 323 320 320 323 328 334 338 341 343 344 345 346 346 345 344 342 339 337 336 335 334
330 333 335 337 338 339 340 340 340 340 340 339 338 337 335 334 334 333 330 327 325 324 322 321 320 320 319 319 319 318 316 314 312 311 311 311 311 313 315 319 323 328 332 335 337 338 337 333 327 322 319 318 322 327 334 338 341 343 344 345 345 344 343 341 339 338 336 335 334
329 332 334 336 338 339 339 339 339 339 339 339 338 337 336 336 335 334 332 329 328 325 323 321 320 319 318 318 318 317 315 314 313 312 311 311 311 312 314 316 319 323 327 330 333 335 336 335 332 326 320 316 317 321 328 335 338 341 342 343 343 343 341 340 339 338 337 336 336
328 331 333 335 337 338 339 338 338 338 339 339 339 339 338 337 336 336 334 332 330 327 325 323 321 319 318 317 317 316 315 314 313 313 312 311 311 312 314 316 318 321 323 326 328 330 332 334 333 330 325 319 315 316 321 329 334 338 340 341 342 341 340 339 338 338 338 338 337
327 330 333 335 336 338 338 338 338 339 339 340 340 340 340 339 338 337 336 334 332 329 326 325 323 321 319 317 316 315 315 314 314 313 312 311 311 312 314 316 318 320 322 324 325 326 328 329 331 331 328 323 316 312 314 320 327 333 336 339 340 340 339 337 337 338 339 340 339
327 330 332 335 336 337 337 338 339 340 340 341 342 342 342 341 340 338 337 335 334 331 329 326 325 323 320 318 317 316 315 314 314 314 313 312 312 313 314 316 318 320 321 322 323 323 324 325 327 329 329 325 317 309 306 311 318 325 331 336 339 339 337 335 336 337 339 340 340
326 329 332 334 335 337 338 338 339 340 341 342 343 344 343 342 341 340 338 337 336 334 331 329 327 324 322 320 318 316 315 315 315 315 315 314 314 314 315 317 318 319 320 321 321 321 321 322 324 328 329 325 316 306 301 303 311 319 328 335 339 339 336 335 336 337 339 340 340
325 329 331 333 335 336 337 339 340 341 343 344 344 345 344 344 343 342 341 339 337 336 334 331 329 327 325 322 320 319 318 317 317 317 316 316 315 315 316 317 318 318 319 319 320 320 320 320 323 328 328 323 312 303 298 300 307 318 328 336 339 338 337 336 337 338 339 339 339
325 328 330 332 334 336 337 339 341 342 344 344 345 345 345 345 344 343 342 340 339 337 336 334 332 330 328 326 324 322 321 321 319 318 317 316 316 316 316 317 317 318 319 319 320 319 319 320 324 327 326 319 310 302 298 300 308 319 329 336 338 337 337 337 337 337 337 338 337
324 326 329 331 333 335 337 340 341 343 344 345 345 346 346 346 345 344 343 342 340 339 338 337 336 334 333 331 330 328 327 325 323 321 320 318 318 318 318 318 318 319 319 320 320 320 320 322 324 324 321 316 310 304 301 303 311 322 330 335 335 334 333 332 332 332 332 333 333
323 326 328 330 333 335 337 340 342 344 345 346 346 346 346 346 345 344 344 343 343 342 341 340 339 338 337 337 336 334 332 329 327 326 324 323 322 321 321 321 321 321 321 321 321 321 321 321 320 319 318 316 312 308 305 306 313 323 331 333 331 328 325 324 323 323 324 326 328
321 325 327 330 332 335 337 340 343 345 346 346 346 345 345 345 345 345 345 345 345 345 345 344 343 343 342 342 340 338 334 332 330 330 329 329 328 327 326 325 324 324 324 324 324 323 320 318 316 317 318 317 314 310 307 308 314 323 331 332 329 323 318 315 314 315 317 321 325
321 324 326 329 331 334 338 341 343 345 345 345 345 344 344 344 345 345 346 348 348 348 347 347 346 346 346 344 341 338 335 333 333 333 333 333 333 333 331 329 328 328 329 329 328 324 320 317 317 318 319 319 315 311 308 307 312 323 333 335 330 322 315 312 312 313 316 320 324
320 323 325 327 330 334 338 340 342 343 343 343 343 343 343 343 344 346 348 349 349 349 349 349 349 348 347 345 341 339 337 336 336 336 336 335 335 335 334 333 332 333 334 334 330 325 320 319 319 320 321 320 317 313 308 306 312 325 336 337 332 322 315 313 315 317 318 320 325
318 321 324 326 330 333 337 339 341 342 342 341 341 341 341 342 344 346 348 349 350 350 350 350 349 348 347 344 342 341 340 339 338 337 336 336 336 336 336 336 336 337 338 337 332 326 323 322 322 321 321 320 318 313 309 307 317 330 339 339 333 324 319 319 321 322 322 322 325
316 319 322 325 329 333 336 338 339 339 339 339 338 339 340 342 344 346 348 349 350 351 350 349 349 348 347 346 344 343 342 341 339 338 337 337 338 339 340 340 340 342 342 340 336 330 327 325 323 322 322 320 317 311 307 308 323 337 342 340 333 325 322 323 326 326 325 324 326
314 318 321 325 328 331 335 336 336 336 335 335 336 337 339 342 345 346 347 348 349 349 349 348 348 348 348 347 346 344 343 342 340 339 339 340 341 343 344 344 345 346 346 343 339 334 329 326 324 323 322 321 316 309 306 312 329 340 343 340 333 327 325 325 328 329 327 326 328
313 317 321 324 327 330 332 333 334 333 333 333 334 336 339 342 344 346 346 345 345 346 346 347 347 348 348 347 345 344 343 342 342 342 342 343 345 346 348 349 349 349 348 345 341 335 329 325 324 323 323 321 316 310 308 317 331 339 341 337 331 325 325 327 330 329 328 328 330
312 316 320 324 326 329 330 331 331 331 330 331 333 335 339 341 343 343 342 342 343 344 345 346 346 346 346 345 345 344 344 344 345 346 347 348 349 350 352 353 353 352 350 346 341 335 329 324 323 323 323 323 318 313 312 319 330 336 338 334 327 322 323 326 327 328 328 329 331
311 316 320 323 326 327 329 329 329 328 328 329 332 335 337 339 340 340 340 341 342 343 345 346 345 344 344 344 344 345 345 345 347 350 351 352 353 354 355 355 355 354 351 347 341 334 328 325 323 324 324 322 319 315 314 319 328 334 335 330 324 322 323 324 324 325 327 328 331
311 315 319 322 325 327 328 327 327 326 326 328 331 334 336 337 338 339 339 340 341 342 343 345 345 344 344 344 344 344 344 345 349 352 355 356 356 357 358 358 357 356 353 348 343 337 333 329 327 326 326 324 320 316 315 319 327 333 332 326 324 325 326 326 324 325 326 327 330
309 314 318 322 325 326 327 326 325 325 326 328 331 334 335 336 337 337 338 339 339 340 342 343 343 343 343 343 343 343 343 345 349 353 356 358 358 358 359 360 359 358 355 351 347 344 341 336 331 329 328 327 323 319 317 320 326 329 327 323 325 328 330 329 328 327 327 328 330
308 313 318 322 325 326 326 325 325 325 327 330 332 334 335 335 336 336 337 337 338 339 341 342 343 344 344 344 344 344 343 344 347 352 356 358 358 357 357 359 360 360 359 356 354 351 347 341 334 331 330 329 325 321 319 320 322 321 320 321 327 332 334 333 333 331 330 330 331
307 313 318 322 324 325 324 324 325 326 328 331 333 334 334 335 335 335 336 336 337 338 339 341 343 344 345 345 345 344 343 343 346 350 354 357 356 355 355 356 359 1 1 360 358 353 347 340 334 330 330 330 327 324 321 318 314 313 316 323 330 334 335 336 336 334 334 333 334
307 312 317 320 323 323 324 324 326 328 330 332 333 334 334 334 334 335 336 336 336 336 337 339 341 343 344 344 343 343 343 344 346 349 353 355 355 353 352 352 355 358 360 359 356 350 344 339 334 331 330 330 328 325 320 315 309 311 319 327 332 334 335 336 336 335 335 336 336
306 310 315 319 321 323 325 326 328 330 332 333 333 333 333 333 333 335 336 336 336 335 335 336 338 341 342 342 341 341 342 345 348 350 352 353 353 352 349 347 348 351 353 353 350 347 345 342 339 336 334 332 330 326 321 315 311 317 326 332 333 333 334 334 334 334 335 336 337
305 309 313 317 320 323 325 328 330 332 333 333 332 332 332 332 334 335 336 336 335 334 334 334 336 338 339 339 338 338 341 346 351 353 353 351 351 349 346 343 341 341 342 345 345 346 346 348 347 345 342 339 335 329 324 319 320 327 335 337 336 334 333 333 333 333 334 336 338
304 307 311 314 318 322 325 328 331 333 333 332 332 331 332 333 334 335 335 334 334 333 332 333 334 336 337 337 336 337 339 345 351 353 352 350 348 346 344 339 335 333 335 338 342 344 348 351 353 352 350 347 341 336 331 328 333 340 343 342 340 336 333 332 332 333 335 336 338